K4NSC-13 Weather Reports


time (UTC)temp
F
wind
direction
speed
knots
gust
knots
rain 1hr
in
rain 24hr
in
rain mn
in
humidity
%
barometer
mb
20260506091525 62 180 1.7 2.6 0.00 0.00 0.00 88 1014.9
20260506090525 62 177 0.9 1.7 0.00 0.00 0.00 87 1014.9
20260506085525 62 184 1.7 4.3 0.00 0.00 0.00 87 1014.8
20260506084531 62 174 0.9 3.5 0.00 0.00 0.00 87 1015.0
20260506083525 62 175 1.7 4.3 0.00 0.00 0.00 87 1014.9
20260506082522 62 184 1.7 4.3 0.00 0.00 0.00 87 1015.0
20260506081526 62 175 2.6 3.5 0.00 0.00 0.00 86 1015.2
20260506080526 62 174 1.7 2.6 0.00 0.00 0.00 86 1015.2
20260506073526 62 178 1.7 3.5 0.00 0.00 0.00 85 1015.1
20260506072540 63 140 0.9 2.6 0.00 0.00 0.00 84 1015.2
20260506071526 63 169 0.9 2.6 0.00 0.00 0.00 84 1015.2
20260506070527 63 169 0.9 2.6 0.00 0.00 0.00 84 1015.0
20260506061609 64 188 0.9 2.6 0.00 0.00 0.00 82 1015.1
20260506060529 64 238 0.9 3.5 0.00 0.00 0.00 82 1015.4
20260506050529 65 321 0.9 1.7 0.00 0.00 0.00 80 1015.4
20260506044520 65 194 1.7 5.2 0.00 0.00 0.00 79 1015.6
20260506043529 65 10 0.9 1.7 0.00 0.00 0.00 79 1015.6
20260506042530 65 275 1.7 2.6 0.00 0.00 0.00 78 1015.6
20260506041529 66 344 0.9 2.6 0.00 0.00 0.00 78 1015.7
20260506040529 66 209 1.7 3.5 0.00 0.00 0.00 78 1015.7
20260506035529 66 206 1.7 2.6 0.00 0.00 0.00 77 1015.6
20260506034520 66 198 1.7 4.3 0.00 0.00 0.00 76 1015.6
20260506033530 67 312 1.7 4.3 0.00 0.00 0.00 76 1015.6
20260506032530 67 181 0.9 1.7 0.00 0.00 0.00 75 1015.5
20260506031551 67 274 1.7 3.5 0.00 0.00 0.00 75 1015.3
20260506030536 68 312 2.6 6.1 0.00 0.00 0.00 74 1015.3
20260506025532 68 272 1.7 4.3 0.00 0.00 0.00 73 1015.2
20260506024523 68 283 2.6 7.8 0.00 0.00 0.00 71 1015.2
20260506023531 69 335 0.9 2.6 0.00 0.00 0.00 70 1015.2
20260506022522 69 332 3.5 8.7 0.00 0.00 0.00 68 1015.4
20260506021531 70 296 1.7 3.5 0.00 0.00 0.00 67 1015.4
20260506020542 70 319 1.7 5.2 0.00 0.00 0.00 66 1015.2
20260506015522 71 316 2.6 6.1 0.00 0.00 0.00 65 1015.0
20260506014523 71 328 2.6 7.8 0.00 0.00 0.00 65 1014.9
20260506013522 72 299 1.7 5.2 0.00 0.00 0.00 64 1014.7
20260506012531 72 337 2.6 7.0 0.00 0.00 0.00 63 1014.5
20260506011523 73 315 2.6 5.2 0.00 0.00 0.00 63 1014.3
20260506010523 73 344 2.6 7.0 0.00 0.00 0.00 62 1014.2
20260506005520 74 338 2.6 8.7 0.00 0.00 0.00 61 1014.0
20260506004524 74 340 2.6 4.3 0.00 0.00 0.00 59 1013.5
20260506003524 75 313 2.6 5.2 0.00 0.00 0.00 58 1013.4
20260506002544 74 338 2.6 4.3 0.00 0.00 0.00 55 1013.3
20260506001519 74 324 2.6 4.3 0.00 0.00 0.00 53 1013.4
20260506000541 76 303 0.9 2.6 0.00 0.00 0.00 50 1013.3
20260505235517 78 308 1.7 2.6 0.00 0.00 0.00 47 1013.3
20260505234533 79 297 0.9 1.7 0.00 0.00 0.00 45 1013.2
20260505233553 80 33 0.9 2.6 0.00 0.00 0.00 44 1013.2
20260505232533 80 107 1.7 3.5 0.00 0.00 0.00 43 1013.2
20260505231519 80 170 0.9 2.6 0.00 0.00 0.00 42 1013.2
20260505230519 81 59 1.7 3.5 0.00 0.00 0.00 42 1013.3
20260505225518 81 176 1.7 3.5 0.00 0.00 0.00 42 1013.4
20260505224519 80 164 2.6 4.3 0.00 0.00 0.00 43 1013.3
20260505223519 81 173 1.7 6.1 0.00 0.00 0.00 42 1013.1
20260505222519 81 350 2.6 7.0 0.00 0.00 0.00 42 1013.2
20260505221601 82 11 0.9 1.7 0.00 0.00 0.00 41 1013.2
20260505220520 82 308 2.6 6.1 0.00 0.00 0.00 41 1013.2
20260505215519 82 158 2.6 7.0 0.00 0.00 0.00 41 1013.2
20260505214520 82 138 1.7 3.5 0.00 0.00 0.00 42 1013.3
20260505213521 82 185 2.6 9.6 0.00 0.00 0.00 43 1013.4
20260505212628 82 305 1.7 4.3 0.00 0.00 0.00 42 1013.5
20260505211520 82 164 2.6 4.3 0.00 0.00 0.00 43 1013.5
20260505210520 83 338 3.5 7.0 0.00 0.00 0.00 42 1013.6
20260505205520 83 160 2.6 4.3 0.00 0.00 0.00 42 1013.6
20260505204520 82 272 1.7 3.5 0.00 0.00 0.00 42 1013.6
20260505203521 82 256 2.6 6.1 0.00 0.00 0.00 43 1013.7
20260505202521 81 300 2.6 7.8 0.00 0.00 0.00 43 1014.0
20260505201524 81 146 2.6 5.2 0.00 0.00 0.00 43 1014.0
20260505200521 82 142 3.5 7.0 0.00 0.00 0.00 42 1014.1
20260505195521 82 158 2.6 5.2 0.00 0.00 0.00 43 1014.2
20260505194529 82 152 2.6 6.1 0.00 0.00 0.00 42 1014.3
20260505193521 82 260 2.6 7.8 0.00 0.00 0.00 43 1014.5
20260505192521 82 172 2.6 5.2 0.00 0.00 0.00 43 1014.6
20260505191521 82 145 3.5 8.7 0.00 0.00 0.00 42 1014.7
20260505190519 82 307 3.5 11.3 0.00 0.00 0.00 43 1015.1
20260505185522 82 172 2.6 7.0 0.00 0.00 0.00 43 1015.3
20260505184522 82 161 2.6 6.1 0.00 0.00 0.00 43 1015.7
20260505183525 81 154 3.5 7.0 0.00 0.00 0.00 45 1015.8
20260505182520 81 142 5.2 10.4 0.00 0.00 0.00 44 1015.9
20260505181522 82 160 4.3 7.8 0.00 0.00 0.00 43 1015.8
20260505180522 81 197 1.7 4.3 0.00 0.00 0.00 44 1015.8
20260505175522 80 163 2.6 6.1 0.00 0.00 0.00 45 1015.6
20260505174522 80 169 3.5 6.1 0.00 0.00 0.00 45 1015.7
20260505173522 80 144 2.6 9.6 0.00 0.00 0.00 46 1015.7
20260505172543 79 320 2.6 7.8 0.00 0.00 0.00 47 1015.9
20260505171523 79 349 2.6 9.6 0.00 0.00 0.00 49 1016.0
20260505170524 79 157 3.5 6.1 0.00 0.00 0.00 49 1016.3
20260505165523 79 148 3.5 7.8 0.00 0.00 0.00 49 1016.5
20260505164523 78 291 1.7 4.3 0.00 0.00 0.00 50 1016.6
20260505163524 78 158 2.6 4.3 0.00 0.00 0.00 47 1016.7
20260505162518 77 281 2.6 6.1 0.00 0.00 0.00 54 1016.8
20260505161538 76 149 3.5 7.0 0.00 0.00 0.00 54 1017.0
20260505160518 77 149 2.6 5.2 0.00 0.00 0.00 55 1017.1
20260505152518 75 140 3.5 6.1 0.00 0.00 0.00 62 1017.3
20260505151519 75 152 2.6 5.2 0.00 0.00 0.00 62 1017.3
20260505150519 74 142 3.5 7.0 0.00 0.00 0.00 64 1017.3
20260505140606 71 163 2.6 5.2 0.00 0.00 0.00 68 1017.3
20260505124526 67 258 0.0 1.7 0.00 0.00 0.00 76 1017.3
20260505123527 66 0.0 0.0 0.00 0.00 0.00 78 1017.3
20260505122528 63 21 0.0 0.9 0.00 0.00 0.00 83 1017.3
20260505121528 62 179 0.9 1.7 0.00 0.00 0.00 82 1017.2
20260505120527 60 214 0.0 0.0 0.00 0.00 0.00 84 1017.3
20260505115527 57 0.0 0.0 0.00 0.00 0.00 89 1017.2
20260505114608 53 0.0 0.0 0.00 0.00 0.00 95 1017.3
20260505113528 51 7 0.0 0.9 0.00 0.00 0.00 97 1017.3
20260505112549 51 3 0.0 0.9 0.00 0.00 0.00 97 1017.2
20260505111548 50 328 0.0 0.9 0.00 0.00 0.00 97 1017.2
20260505110528 50 0.0 0.0 0.00 0.00 0.00 97 1017.2
20260505101529 50 336 0.0 0.9 0.00 0.00 0.00 96 1016.7
20260505100529 51 0.0 0.0 0.00 0.00 0.00 95 1016.5
20260505095530 51 0.0 0.0 0.00 0.00 0.00 95 1016.5
20260505094529 51 0.0 0.0 0.00 0.00 0.00 94 1016.5
20260505093545 52 0.0 0.0 0.00 0.00 0.00 94 1016.4
20260505092529 52 0.0 0.0 0.00 0.00 0.00 93 1016.4